Погода в Сортавале

Погода в Сортавале : погода сейчас, прогноз погоды и архив. Всё, что Вы хотите узнать о погоде в Сортавале!

Хотите узнать прогноз погоды в Сортавале? Тогда Вам сюда: Погода в Сортавале

Поиск расширенной информации на нашем сайте:

Полезная информация:

Другие новости

Новости СМИ2

Главная страница сайта

Новости сайта

03.07.2017

Напоминаем, что на нашем специализированном сайте Метеоцентр.Азия вы можете получить высокодетализированные автоматические прогнозы погоды по пунктам России, СНГ и мира в авиационном формате (включающие направление и скорость ветра, видимость, явления погоды, количество и форму облачности, нижнюю и верхнюю границу облачности).

Рекомендуем:

Погода в Сортавале - сегодня

Время (UTC), дата Ветер
(°,м/с) 
Видим.   Явления Облачность Т
(°С)
Тd
(°С)
f(%) Тe
(°С)
Pmin
(гПа)
dP
(гПа)
Po
(мм)
O2
(г/м3)
Тmin Tmax R s Состояние
почвы
00 22.05.19 180 (Ю) 20000 м  в посл. час ливневой дождь  9/4 600 м кучево-дожд., средняя 
[Cb cap|Ac trans]
+11.1 +9.9 92 +13  1013.9  -0.5  759  292           
03 22.05.19 050 (СВ) 20000 м  {ливн. осадки}  9/4 600 м кучево-дожд., средняя, верхняя 
[Cb cap|Ac trans|Ci sp]
+12.5 +11.5 94 +17  1013.6  -0.2  759  290  +11    0.6     
06 22.05.19 070 (В) 20000 м  {ливн. осадки}  9/8 700 м кучево-дожд., средняя 
[Cb cap|Ac trans]
+15.2 +11.3 78 +20  1013.2  -0.4  758  287  +11    0.6    влажная 
09 22.05.19 230 (ЮЗ) 20000 м    9/6 900 м средняя 
[Sc|Ac trans]
+16.6 +10.6 68 +19  1012.7  -0.5  758  286           
12 22.05.19 190 (Ю) 20000 м    9/4 600 м средняя, верхняя 
[Sc|Ac As|Ci fib]
+18.4 +11.1 62 +21  1011.3  -1.4  757  284           
15 22.05.19 020 (С) 20000 м  {ливн. осадки}  9/8 720 м кучево-дожд., средняя 
[Cb cap|Ac trans]
+15.1 +11.8 81 +19  1010.1  -1.2  756  286         
18 22.05.19 тихо ()   20000 м  {ливн. осадки}  9/6 1500 м средняя 
[Sc|Ac trans]
+13.6 +13.2 97 +19  1009.9  -0.2  756  287    +18.4     
21 22.05.19 тихо ()   20000 м    10/10 360 м 
[St]
+13.2 +13 99 +18  1008.6  -1.3  755  288           
00 23.05.19 050 (СВ) 7-12{13}  50000 м    9/9 600 м кучево-дожд. 
[Cb cap]
+8.1 +5.5 84 +6  1010.8  2.1  756  295           
03 23.05.19 040 (СВ) 8-12{12}  20000 м    6/6 600 м кучево-дожд. 
[Cb cap]
+4.8 +2.3 84 +2  1013.1  2.3  758  300  +4.8         
06 23.05.19 040 (СВ) 5{13}  20000 м    9/1 600 м верхняя 
[Sc|Ci fib]
+6.2 -1 60 +4  1014.5  1.4  759  299  +4         
09 23.05.19 070 (В) 5{11}  20000 м    8/0 верхняя 
[Ci fib]
+9 -1.7 47 +8  1015.2  0.7  760  297           
12 23.05.19 030 (СВ) 20000 м    8/0 верхняя 
[Ci fib]
+10.7 -1.7 42 +10  1015.1  -0.1  760  295           
15 23.05.19 030 (СВ) 20000 м    9/0 верхняя 
[Ci fib]
+10.8 -2.2 40 +10  1015.1  760  295           
18 23.05.19 060 (СВ) 20000 м    9/3 1000 м средняя, верхняя 
[Sc|Ac trans|Ci fib]
+9.5 +2.7 62 +10  1015.4  0.3  760  295    +11.8       
21 23.05.19 090 (В) 50000 м    9/3 1000 м средняя, верхняя 
[Sc|Ac trans|Ci fib]
+5.7 -1.6 59 +5  1016.3  0.9  761  300           
00 24.05.19 090 (В) 50000 м    9/4 600 м средняя, верхняя 
[Sc|Ac trans|Ci fib]
+5 -2.2 60 +4  1017.1  0.8  761  301           
03 24.05.19 090 (В) 20000 м    9/3 1000 м средняя, верхняя 
[Sc|Ac As|Cs]
+4.1 -2.2 63 +3  1017.7  0.6  762  303  +3.7         
06 24.05.19 070 (В) 20000 м    9/3 1000 м средняя, верхняя 
[Sc|Ac trans|Ci sp]
+6.2 -2.4 54 +6  1017  -0.7  761  300  +3.7        влажная 
09 24.05.19 090 (В) 20000 м    9/3 1000 м средняя, верхняя 
[Sc|Ac trans|Ci sp]
+8.8 -3.5 42 +8  1016  -1  760  297           
12 24.05.19 160 (Ю) 20000 м    9/3 600 м средняя, верхняя 
[Sc|Ac trans|Ci sp]
+8.3 -1.3 51 +8  1015.1  -0.9  760  297           
15 24.05.19 080 (В) 20000 м    9/1 1000 м средняя, верхняя 
[Sc|Ac trans|Ci sp]
+8.3 -0.3 55 +9  1013.3  -1.8  758  297           
18 24.05.19 360 (С) 20000 м    9/8 1500 м средняя 
[Sc|Ac trans]
+7.9 +0.5 59 +9  1011.9  -1.4  757  296    +9.8       
21 24.05.19 тихо ()   50000 м    8/3 1000 м средняя, верхняя 
[Sc|Ac trans|Ci fib]
+5.1 +1.5 78 +5  1010.5  -1.4  756  299           
00 25.05.19 тихо ()   20000 м    9/3 1000 м средняя, верхняя 
[Sc|Ac trans|Ci fib]
+6.6 +1.2 68 +7  1008.9  -1.6  755  297           
Время (UTC), дата Ветер
(°,м/с) 
Видим.   Явления Облачность Т
(°С)
Тd
(°С)
f(%) Тe
(°С)
Pmin
(гПа)
dP
(гПа)
Po
(мм)
O2
(г/м3)
Тmin Tmax R s Состояние
почвы

Для получения пояснительной информации подведите курсор к названию столбца.

ПОГОДА в Сортавале - архив

Всё, что Вы хотите узнать о погоде в Сортавале - удобно и подробно!

Выберите нужную дату (начиная с 1 января 2018* года) и нажмите кнопку "Найти".
Будут отображены архивные сводки погоды по пункту Сортавала, начиная с указанной даты.


Отображать данные в формате CSV (для использования в таблицах Excel)


Внимание! Наш архив погоды предназначен исключительно для личного некоммерческого использования в познавательных целях. Если Вам необходимы официальные справки о состоянии погоды (для производственных, юридических, коммерческих и т.п. целей), обращайтесь в органы Росгидромета.

*Примечание: данная дата относится к архиву по метеостанциям СССР (Россия, СНГ, Балтия).
Архив по метеостанциям Зарубежной Европы и Азии (кроме Китая) хранится 10 дней, по другим регионам земного шара (Китай, Африка, Америка, Австралия, Океания) - 1 день.

Сортавала - район местоположения метеостанции


Название, широта, долгота, высота метеостанции:
Сортавала 61.7°ш. 30.7°д. 19 м над ур. моря [Российская Федерация]

Дополнительная информация

В oтличие oт бoльшинства пoгoдных сайтoв мы публикуем пoдрoбную метеoинфoрмацию в детальнoм прoфессиoнальнoм фoрмате.

Характеристики температуры и влажнoсти вoздуха измеряются на высoте 2 м в тени вдали oт зданий и деревьев.
Скoрoсть ветра измеряется на высoте 10 м (на урoвне рoста челoвека скoрoсть ветра ниже в 1.5-2 раза). Если метеoстанция нахoдится в гoрoде или в лесу, тo скoрoсть ветра занижена на 2-4 м/с пo сравнению с oткрытым местoм. Скoрoсть ветра над акватoриями крупных рек и oзёр, а также на вершинах хoлмoв на 2-5 м/с выше, чем в oбычных услoвиях.
Атмoсфернoе давление в разных тoчках местнoсти мoжет значительнo oтличаться oт давления на метеoстанции, в зависимoсти oт услoвий рельефа (при пoдъёме на 10 м давление пoнижается примернo на 1 мм рт.ст.).